JES3018 SABE-SASA

Flight info

Callsign JES3018
Flight time 1h 51m
Altitude 34000
Route BIVAM4B BIVAM UW8 ERE UT672 DADMI UT677 ILPAR
Aircraft A320/M-SDE3FGHIRWY/LB1

Departure

Time 2026-04-30 18:28
Airport Aeroparque Jorge Newbery (SABE)

Arrival

Time 2026-04-30 20:19
Airport Martín Miguel de Güemes International Airport (SASA)
Time Latitude Longitude Altitude Speed Heading
2026-04-30 17:52 -34.55802 -58.41243 27 ft 0 kts 40°
2026-04-30 18:19 -34.55806 -58.41248 45 ft 2 kts 41°
2026-04-30 18:19 -34.55817 -58.41259 50 ft 2 kts 38°
2026-04-30 18:19 -34.55827 -58.41268 13 ft 1 kts 21°
2026-04-30 18:20 -34.55833 -58.41271 18 ft 1 kts 340°
2026-04-30 18:20 -34.55838 -58.41268 27 ft 1 kts 310°
2026-04-30 18:20 -34.55842 -58.41262 27 ft 1 kts 302°
2026-04-30 18:20 -34.55845 -58.41256 27 ft 1 kts 300°
2026-04-30 18:21 -34.55847 -58.41252 27 ft 0 kts 299°
2026-04-30 18:25 -34.55856 -58.41269 27 ft 3 kts 206°
2026-04-30 18:25 -34.55894 -58.41301 27 ft 10 kts 228°
2026-04-30 18:26 -34.55838 -58.41509 30 ft 19 kts 297°
2026-04-30 18:26 -34.55773 -58.41660 30 ft 20 kts 298°
2026-04-30 18:26 -34.55694 -58.41827 30 ft 25 kts 304°
2026-04-30 18:27 -34.55490 -58.42176 27 ft 27 kts 307°
2026-04-30 18:27 -34.55380 -58.42358 26 ft 27 kts 299°
2026-04-30 18:28 -34.55419 -58.42483 27 ft 7 kts 124°
2026-04-30 18:28 -34.55474 -58.42385 28 ft 42 kts 125°
2026-04-30 18:28 -34.56481 -58.40606 774 ft 162 kts 123°
2026-04-30 18:29 -34.57106 -58.39389 1695 ft 183 kts 111°
2026-04-30 18:29 -34.54886 -58.35329 4302 ft 242 kts 26°
2026-04-30 18:30 -34.51496 -58.35348 6424 ft 260 kts 329°
2026-04-30 18:30 -34.48752 -58.38261 9007 ft 265 kts 316°
2026-04-30 18:31 -34.47379 -58.39769 10257 ft 269 kts 316°
2026-04-30 18:31 -34.44363 -58.43040 11604 ft 315 kts 316°
2026-04-30 18:32 -34.41004 -58.46707 13451 ft 333 kts 315°
2026-04-30 18:32 -34.39267 -58.48606 14437 ft 338 kts 315°
2026-04-30 18:32 -34.35748 -58.52454 16500 ft 343 kts 314°
2026-04-30 18:33 -34.33969 -58.54400 17481 ft 346 kts 314°
2026-04-30 18:33 -34.30370 -58.58337 19273 ft 351 kts 314°
2026-04-30 18:33 -34.28553 -58.60325 20127 ft 353 kts 314°
2026-04-30 18:34 -34.26721 -58.62329 20974 ft 356 kts 313°
2026-04-30 18:34 -34.23038 -58.66354 22657 ft 362 kts 313°
2026-04-30 18:34 -34.21162 -58.68403 23474 ft 365 kts 313°
2026-04-30 18:35 -34.19245 -58.70494 24174 ft 368 kts 313°
2026-04-30 18:35 -34.17373 -58.72535 24796 ft 372 kts 313°
2026-04-30 18:35 -34.15445 -58.74636 25426 ft 376 kts 313°
2026-04-30 18:36 -34.11525 -58.78904 26647 ft 383 kts 314°
2026-04-30 18:36 -34.09530 -58.81074 27228 ft 387 kts 314°
2026-04-30 18:36 -34.05491 -58.85461 28344 ft 394 kts 314°
2026-04-30 18:37 -34.03448 -58.87679 28874 ft 397 kts 314°
2026-04-30 18:37 -34.01383 -58.89918 29378 ft 400 kts 314°
2026-04-30 18:37 -33.99304 -58.92171 29873 ft 404 kts 314°
2026-04-30 18:37 -33.97157 -58.94334 30319 ft 410 kts 319°
2026-04-30 18:38 -33.94789 -58.96277 30777 ft 415 kts 324°
2026-04-30 18:38 -33.92307 -58.98072 31259 ft 417 kts 324°
2026-04-30 18:38 -33.89826 -58.99875 31826 ft 416 kts 324°
2026-04-30 18:38 -33.87360 -59.01671 32447 ft 413 kts 324°
2026-04-30 18:39 -33.84908 -59.03460 33063 ft 411 kts 324°
2026-04-30 18:39 -33.82471 -59.05239 33659 ft 409 kts 324°
2026-04-30 18:39 -33.80049 -59.07005 33935 ft 406 kts 324°
2026-04-30 18:40 -33.75231 -59.10517 33984 ft 405 kts 324°
2026-04-30 18:40 -33.70411 -59.14026 33985 ft 405 kts 324°
2026-04-30 18:41 -33.65585 -59.17532 33985 ft 405 kts 324°
2026-04-30 18:41 -33.60754 -59.21037 33981 ft 406 kts 324°
2026-04-30 18:42 -33.55923 -59.24538 33979 ft 406 kts 324°
2026-04-30 18:42 -33.48660 -59.29791 33977 ft 406 kts 324°
2026-04-30 18:45 -33.22013 -59.48976 33979 ft 408 kts 324°
2026-04-30 18:46 -33.17148 -59.52464 33971 ft 407 kts 324°
2026-04-30 18:46 -33.12283 -59.55947 33971 ft 407 kts 324°
2026-04-30 18:47 -33.07420 -59.59423 33976 ft 407 kts 325°
2026-04-30 18:47 -33.02551 -59.62900 33972 ft 407 kts 325°
2026-04-30 18:48 -32.97718 -59.66347 33970 ft 407 kts 325°
2026-04-30 18:48 -32.92860 -59.69806 33965 ft 407 kts 325°
2026-04-30 18:49 -32.87995 -59.73267 33963 ft 407 kts 325°
2026-04-30 18:49 -32.83133 -59.76721 33963 ft 406 kts 325°
2026-04-30 18:50 -32.78271 -59.80170 33955 ft 406 kts 325°
2026-04-30 18:50 -32.73414 -59.83611 33952 ft 406 kts 325°
2026-04-30 18:51 -32.68596 -59.87020 33949 ft 406 kts 325°
2026-04-30 18:51 -32.63746 -59.90448 33946 ft 405 kts 325°
2026-04-30 18:52 -32.58893 -59.93875 33955 ft 405 kts 325°
2026-04-30 18:52 -32.54054 -59.97289 33957 ft 405 kts 325°
2026-04-30 18:53 -32.49212 -60.00704 33948 ft 405 kts 325°
2026-04-30 18:53 -32.44407 -60.04087 33948 ft 404 kts 325°
2026-04-30 18:54 -32.39561 -60.07495 33947 ft 404 kts 325°
2026-04-30 18:54 -32.34723 -60.10894 33940 ft 404 kts 325°
2026-04-30 18:55 -32.29887 -60.14286 33941 ft 404 kts 325°
2026-04-30 18:55 -32.22628 -60.19370 33939 ft 404 kts 325°
2026-04-30 18:56 -32.15395 -60.24427 33938 ft 404 kts 325°
2026-04-30 18:57 -32.08124 -60.29500 33942 ft 404 kts 325°
2026-04-30 18:57 -32.03284 -60.32872 33948 ft 404 kts 325°
2026-04-30 18:58 -31.96028 -60.37920 33957 ft 404 kts 325°
2026-04-30 18:59 -31.88757 -60.42968 33965 ft 404 kts 325°
2026-04-30 19:00 -31.79893 -60.49118 33971 ft 403 kts 324°
2026-04-30 19:01 -31.69771 -60.56889 33961 ft 402 kts 322°
2026-04-30 19:02 -31.63532 -60.61651 33953 ft 401 kts 323°
2026-04-30 19:03 -31.54159 -60.68770 33948 ft 401 kts 322°
2026-04-30 19:04 -31.44785 -60.75872 33932 ft 400 kts 322°
2026-04-30 19:05 -31.35452 -60.82928 33922 ft 400 kts 322°
2026-04-30 19:06 -31.26076 -60.90000 33919 ft 401 kts 322°
2026-04-30 19:06 -31.19036 -60.95299 33922 ft 401 kts 322°
2026-04-30 19:07 -31.11992 -61.00591 33923 ft 402 kts 322°
2026-04-30 19:08 -31.02605 -61.07629 33922 ft 402 kts 322°
2026-04-30 19:09 -30.95545 -61.12897 33922 ft 402 kts 323°
2026-04-30 19:09 -30.90833 -61.16409 33920 ft 402 kts 323°
2026-04-30 19:10 -30.81398 -61.23428 33916 ft 402 kts 323°
2026-04-30 19:11 -30.74315 -61.28687 33912 ft 402 kts 323°
2026-04-30 19:12 -30.69589 -61.32190 33920 ft 402 kts 323°
2026-04-30 19:12 -30.64897 -61.35665 33917 ft 402 kts 323°
2026-04-30 19:13 -30.55448 -61.42649 33910 ft 403 kts 323°
2026-04-30 19:14 -30.50718 -61.46139 33910 ft 403 kts 323°
2026-04-30 19:14 -30.45988 -61.49626 33909 ft 403 kts 323°
2026-04-30 19:15 -30.41249 -61.53115 33910 ft 403 kts 323°
2026-04-30 19:15 -30.34144 -61.58339 33904 ft 403 kts 323°
2026-04-30 19:16 -30.29441 -61.61791 33902 ft 403 kts 323°
2026-04-30 19:17 -30.22333 -61.67001 33901 ft 403 kts 323°
2026-04-30 19:17 -30.15212 -61.72212 33898 ft 403 kts 324°
2026-04-30 19:18 -30.08114 -61.77396 33900 ft 404 kts 324°
2026-04-30 19:19 -30.03364 -61.80861 33896 ft 404 kts 324°
2026-04-30 19:19 -29.96228 -61.86058 33895 ft 404 kts 324°
2026-04-30 19:20 -29.91463 -61.89524 33892 ft 405 kts 324°
2026-04-30 19:21 -29.84172 -61.94480 33890 ft 407 kts 328°
2026-04-30 19:22 -29.74171 -62.00646 33890 ft 408 kts 327°
2026-04-30 19:23 -29.59177 -62.09871 33896 ft 408 kts 328°
2026-04-30 19:24 -29.51646 -62.14491 33887 ft 408 kts 328°
2026-04-30 19:25 -29.39138 -62.22149 33886 ft 408 kts 328°
2026-04-30 19:26 -29.29104 -62.28275 33884 ft 408 kts 328°
2026-04-30 19:27 -29.21590 -62.32855 33884 ft 408 kts 328°
2026-04-30 19:28 -29.14078 -62.37425 33879 ft 407 kts 328°
2026-04-30 19:29 -29.04099 -62.43485 33875 ft 407 kts 328°
2026-04-30 19:30 -28.94096 -62.49545 33874 ft 406 kts 328°
2026-04-30 19:31 -28.84154 -62.55576 33869 ft 405 kts 326°
2026-04-30 19:31 -28.77261 -62.61060 33871 ft 402 kts 321°
2026-04-30 19:32 -28.72748 -62.64813 33869 ft 402 kts 321°
2026-04-30 19:32 -28.69832 -62.67232 33864 ft 402 kts 321°
2026-04-30 19:33 -28.65328 -62.70966 33865 ft 401 kts 321°
2026-04-30 19:33 -28.60810 -62.74705 33869 ft 401 kts 321°
2026-04-30 19:34 -28.56289 -62.78444 33865 ft 401 kts 321°
2026-04-30 19:35 -28.49518 -62.84036 33861 ft 401 kts 321°
2026-04-30 19:35 -28.45035 -62.87733 33857 ft 401 kts 321°
2026-04-30 19:36 -28.40517 -62.91455 33858 ft 400 kts 321°
2026-04-30 19:36 -28.33748 -62.97024 33853 ft 400 kts 321°
2026-04-30 19:37 -28.29238 -63.00729 33860 ft 400 kts 321°
2026-04-30 19:37 -28.24726 -63.04433 33857 ft 400 kts 321°
2026-04-30 19:38 -28.20216 -63.08130 33851 ft 400 kts 321°
2026-04-30 19:38 -28.15734 -63.11801 33850 ft 400 kts 321°
2026-04-30 19:39 -28.11223 -63.15492 33855 ft 400 kts 321°
2026-04-30 19:39 -28.06721 -63.19171 33850 ft 399 kts 321°
2026-04-30 19:40 -28.02207 -63.22855 33847 ft 399 kts 321°
2026-04-30 19:40 -27.97697 -63.26533 33842 ft 399 kts 321°
2026-04-30 19:41 -27.93187 -63.30208 33856 ft 399 kts 321°
2026-04-30 19:41 -27.88676 -63.33879 33850 ft 399 kts 321°
2026-04-30 19:42 -27.84186 -63.37529 33847 ft 399 kts 321°
2026-04-30 19:42 -27.79676 -63.41192 33851 ft 399 kts 321°
2026-04-30 19:43 -27.75170 -63.44847 33842 ft 399 kts 321°
2026-04-30 19:44 -27.68410 -63.50324 33843 ft 398 kts 321°
2026-04-30 19:44 -27.63934 -63.53947 33841 ft 398 kts 321°
2026-04-30 19:45 -27.59430 -63.57587 33835 ft 398 kts 321°
2026-04-30 19:45 -27.54929 -63.61221 33836 ft 398 kts 321°
2026-04-30 19:46 -27.50432 -63.64849 33834 ft 397 kts 321°
2026-04-30 19:46 -27.45933 -63.68475 33833 ft 397 kts 321°
2026-04-30 19:47 -27.41460 -63.72075 33832 ft 397 kts 321°
2026-04-30 19:47 -27.36960 -63.75694 33831 ft 397 kts 321°
2026-04-30 19:48 -27.33220 -63.78699 33834 ft 397 kts 321°
2026-04-30 19:48 -27.28721 -63.82311 33827 ft 397 kts 322°
2026-04-30 19:49 -27.24220 -63.85920 33829 ft 397 kts 322°
2026-04-30 19:49 -27.16733 -63.91915 33826 ft 397 kts 322°
2026-04-30 19:50 -27.12957 -63.94935 33822 ft 397 kts 322°
2026-04-30 19:50 -27.08481 -63.98512 33822 ft 397 kts 322°
2026-04-30 19:51 -27.03969 -64.02114 33823 ft 398 kts 322°
2026-04-30 19:51 -26.99457 -64.05713 33820 ft 398 kts 322°
2026-04-30 19:52 -26.94944 -64.09317 33817 ft 398 kts 321°
2026-04-30 19:52 -26.90463 -64.12950 33825 ft 398 kts 321°
2026-04-30 19:53 -26.85998 -64.16571 33826 ft 398 kts 321°
2026-04-30 19:53 -26.81506 -64.20205 33822 ft 398 kts 321°
2026-04-30 19:54 -26.77005 -64.23839 33826 ft 398 kts 321°
2026-04-30 19:54 -26.72527 -64.27451 33822 ft 398 kts 321°
2026-04-30 19:55 -26.68030 -64.31075 33828 ft 399 kts 321°
2026-04-30 19:55 -26.63526 -64.34702 33827 ft 399 kts 321°
2026-04-30 19:56 -26.59024 -64.38323 33828 ft 399 kts 321°
2026-04-30 19:56 -26.54498 -64.41959 33832 ft 400 kts 321°
2026-04-30 19:57 -26.50008 -64.45563 33827 ft 400 kts 321°
2026-04-30 19:57 -26.45485 -64.49190 33843 ft 400 kts 321°
2026-04-30 19:58 -26.40959 -64.52816 33841 ft 401 kts 321°
2026-04-30 19:58 -26.36427 -64.56443 33845 ft 401 kts 321°
2026-04-30 19:59 -26.31889 -64.60071 33852 ft 401 kts 321°
2026-04-30 19:59 -26.27407 -64.63649 32868 ft 393 kts 322°
2026-04-30 20:00 -26.25168 -64.65439 31714 ft 400 kts 322°
2026-04-30 20:00 -26.22885 -64.67263 30570 ft 407 kts 322°
2026-04-30 20:00 -26.20567 -64.69114 29502 ft 411 kts 322°
2026-04-30 20:00 -26.18270 -64.70942 28643 ft 408 kts 322°
2026-04-30 20:01 -26.13703 -64.74574 27068 ft 399 kts 322°
2026-04-30 20:01 -26.11456 -64.76360 26293 ft 396 kts 322°
2026-04-30 20:01 -26.09222 -64.78137 25539 ft 392 kts 322°
2026-04-30 20:02 -26.04818 -64.81636 24076 ft 386 kts 322°
2026-04-30 20:02 -26.02630 -64.83375 23297 ft 385 kts 322°
2026-04-30 20:03 -25.98302 -64.86810 21726 ft 378 kts 321°
2026-04-30 20:03 -25.96171 -64.88501 20949 ft 375 kts 321°
2026-04-30 20:03 -25.94043 -64.90187 20233 ft 373 kts 321°
2026-04-30 20:03 -25.91944 -64.91851 19551 ft 370 kts 321°
2026-04-30 20:04 -25.89858 -64.93503 18865 ft 367 kts 321°
2026-04-30 20:04 -25.87783 -64.95145 18192 ft 365 kts 321°
2026-04-30 20:04 -25.85748 -64.96756 17465 ft 362 kts 321°
2026-04-30 20:05 -25.81693 -64.99964 16103 ft 354 kts 321°
2026-04-30 20:05 -25.79691 -65.01547 15435 ft 352 kts 321°
2026-04-30 20:05 -25.75834 -65.04590 14941 ft 324 kts 321°
2026-04-30 20:06 -25.74051 -65.05994 14907 ft 305 kts 321°
2026-04-30 20:06 -25.72374 -65.07316 14906 ft 287 kts 321°
2026-04-30 20:06 -25.70794 -65.08561 14908 ft 269 kts 321°
2026-04-30 20:06 -25.69297 -65.09665 14909 ft 254 kts 326°
2026-04-30 20:07 -25.67794 -65.10632 14871 ft 241 kts 326°
2026-04-30 20:07 -25.66359 -65.11573 14425 ft 246 kts 325°
2026-04-30 20:07 -25.63245 -65.13635 13010 ft 275 kts 327°
2026-04-30 20:08 -25.61560 -65.14743 12342 ft 286 kts 327°
2026-04-30 20:08 -25.59856 -65.15854 12052 ft 280 kts 327°
2026-04-30 20:08 -25.58211 -65.16923 11942 ft 268 kts 328°
2026-04-30 20:08 -25.56654 -65.17938 11926 ft 252 kts 328°
2026-04-30 20:09 -25.55175 -65.18899 11917 ft 239 kts 328°
2026-04-30 20:09 -25.53798 -65.19792 11923 ft 226 kts 327°
2026-04-30 20:09 -25.50936 -65.21667 11941 ft 281 kts 327°
2026-04-30 20:10 -25.47076 -65.24198 11934 ft 346 kts 328°
2026-04-30 20:10 -25.44993 -65.25551 11931 ft 347 kts 328°
2026-04-30 20:10 -25.42908 -65.26902 11935 ft 347 kts 328°
2026-04-30 20:11 -25.38758 -65.29592 11941 ft 348 kts 328°
2026-04-30 20:11 -25.36673 -65.30946 11869 ft 342 kts 328°
2026-04-30 20:11 -25.34635 -65.32268 11327 ft 340 kts 328°
2026-04-30 20:12 -25.30359 -65.35046 10969 ft 367 kts 329°
2026-04-30 20:12 -25.28129 -65.36492 10952 ft 373 kts 329°
2026-04-30 20:12 -25.25878 -65.37954 10934 ft 369 kts 329°
2026-04-30 20:13 -25.23745 -65.39335 10760 ft 351 kts 329°
2026-04-30 20:13 -25.21747 -65.40628 10609 ft 333 kts 329°
2026-04-30 20:13 -25.19765 -65.41912 10493 ft 339 kts 329°
2026-04-30 20:13 -25.17627 -65.43297 10459 ft 368 kts 329°
2026-04-30 20:14 -25.15470 -65.44694 10288 ft 344 kts 329°
2026-04-30 20:14 -25.13494 -65.45980 10073 ft 320 kts 329°
2026-04-30 20:14 -25.11638 -65.47192 9888 ft 298 kts 329°
2026-04-30 20:14 -25.09935 -65.48303 9706 ft 277 kts 329°
2026-04-30 20:15 -25.08324 -65.49354 9553 ft 258 kts 329°
2026-04-30 20:15 -25.06815 -65.50336 9270 ft 242 kts 329°
2026-04-30 20:15 -25.05424 -65.51241 8701 ft 229 kts 330°
2026-04-30 20:15 -25.04031 -65.52086 7901 ft 228 kts 343°
2026-04-30 20:16 -25.02502 -65.52245 7412 ft 214 kts
2026-04-30 20:16 -25.01075 -65.52035 6942 ft 205 kts 11°
2026-04-30 20:16 -24.99708 -65.51724 6550 ft 193 kts 12°
2026-04-30 20:16 -24.98452 -65.51451 6331 ft 174 kts 12°
2026-04-30 20:17 -24.97281 -65.51192 6149 ft 192 kts 12°
2026-04-30 20:17 -24.95884 -65.50885 5851 ft 196 kts 12°
2026-04-30 20:17 -24.94657 -65.50616 5580 ft 166 kts 12°
2026-04-30 20:17 -24.93577 -65.50377 5355 ft 158 kts 13°
2026-04-30 20:18 -24.92518 -65.50144 5157 ft 151 kts 13°
2026-04-30 20:18 -24.91489 -65.49917 4977 ft 153 kts 13°
2026-04-30 20:18 -24.90438 -65.49687 4792 ft 153 kts 13°
2026-04-30 20:18 -24.89401 -65.49457 4574 ft 148 kts 13°
2026-04-30 20:19 -24.88415 -65.49251 4376 ft 142 kts 12°
2026-04-30 20:19 -24.87773 -65.49106 4207 ft 136 kts 13°
2026-04-30 20:19 -24.86541 -65.48827 4012 ft 120 kts 11°
2026-04-30 20:19 -24.86015 -65.48714 4019 ft 49 kts
2026-04-30 20:20 -24.85684 -65.48645 4018 ft 45 kts 11°
2026-04-30 20:20 -24.85497 -65.48604 4018 ft 26 kts 11°
2026-04-30 20:20 -24.85311 -65.48561 4017 ft 29 kts 13°
2026-04-30 20:20 -24.85114 -65.48519 4017 ft 29 kts 11°
2026-04-30 20:21 -24.84908 -65.48476 4018 ft 31 kts 12°
2026-04-30 20:21 -24.84714 -65.48428 4017 ft 28 kts 29°
2026-04-30 20:21 -24.84659 -65.48377 4017 ft 2 kts 41°
2026-04-30 20:21 -24.84633 -65.48351 4017 ft 7 kts 43°
2026-04-30 20:22 -24.84600 -65.48294 4017 ft 11 kts 69°
2026-04-30 20:22 -24.84571 -65.48202 4017 ft 14 kts 72°
2026-04-30 20:22 -24.84539 -65.48093 4017 ft 15 kts 71°
2026-04-30 20:22 -24.84503 -65.47977 4017 ft 9 kts 72°
2026-04-30 20:23 -24.84503 -65.47926 4017 ft 6 kts 99°
2026-04-30 20:23 -24.84488 -65.47905 4017 ft 0 kts 22°
2026-04-30 20:23 -24.84469 -65.47898 4017 ft 2 kts 21°